| time (UTC) | temp F | wind direction | speed knots | gust knots | rain 1hr in | rain 24hr in | rain mn in | humidity % | barometer mb |
| 20260906073026 | 51 | 182 | 0.0 | 0.0 | 0.00 | 0.01 | 0.00 | 100 | 1018.1 |
| 20260906071525 | 51 | 180 | 0.0 | 0.0 | 0.00 | 0.01 | 0.00 | 100 | 1018.3 |
| 20260906070024 | 51 | 180 | 0.0 | 0.0 | 0.00 | 0.01 | 0.01 | 100 | 1018.3 |
| 20260906064533 | 51 | 180 | 0.0 | 0.0 | 0.00 | 0.01 | 0.01 | 100 | 1018.4 |
| 20260906063023 | 51 | 180 | 0.0 | 0.0 | 0.00 | 0.01 | 0.01 | 100 | 1018.3 |
| 20260906061525 | 52 | 180 | 0.0 | 0.0 | 0.00 | 0.01 | 0.01 | 100 | 1018.4 |
| 20260906060021 | 52 | 180 | 0.0 | 0.0 | 0.00 | 0.01 | 0.01 | 100 | 1018.5 |
| 20260906054532 | 53 | 180 | 0.0 | 0.0 | 0.00 | 0.01 | 0.01 | 100 | 1018.6 |
| 20260906053020 | 53 | 180 | 0.0 | 0.0 | 0.00 | 0.01 | 0.01 | 100 | 1018.6 |
| 20260906051520 | 54 | 180 | 0.0 | 0.0 | 0.00 | 0.01 | 0.01 | 100 | 1018.6 |
| 20260906050020 | 54 | 180 | 0.0 | 0.0 | 0.00 | 0.01 | 0.01 | 100 | 1018.7 |
| 20260906044519 | 55 | 180 | 0.0 | 0.0 | 0.00 | 0.01 | 0.01 | 99 | 1018.7 |
| 20260906043023 | 56 | 180 | 0.0 | 0.0 | 0.00 | 0.01 | 0.01 | 100 | 1018.7 |
| 20260906041518 | 56 | 180 | 0.0 | 0.9 | 0.00 | 0.01 | 0.01 | 99 | 1018.8 |
| 20260906040019 | 57 | 180 | 0.0 | 0.9 | 0.00 | 0.01 | 0.01 | 99 | 1018.8 |
| 20260906034517 | 57 | 180 | 0.0 | 0.9 | 0.00 | 0.01 | 0.01 | 98 | 1018.7 |
| 20260906033017 | 58 | 180 | 0.0 | 0.9 | 0.00 | 0.01 | 0.01 | 97 | 1018.7 |
| 20260906031518 | 58 | 180 | 0.0 | 1.7 | 0.00 | 0.01 | 0.01 | 96 | 1018.5 |
| 20260906030015 | 60 | 194 | 0.0 | 1.7 | 0.00 | 0.01 | 0.01 | 94 | 1018.6 |
| 20260906024514 | 61 | 202 | 0.0 | 2.6 | 0.00 | 0.01 | 0.01 | 92 | 1018.6 |
| 20260906023015 | 62 | 281 | 0.9 | 4.3 | 0.00 | 0.01 | 0.01 | 90 | 1018.7 |
| 20260906021523 | 63 | 282 | 0.0 | 2.6 | 0.00 | 0.01 | 0.01 | 88 | 1018.8 |
| 20260906020018 | 65 | 272 | 0.9 | 2.6 | 0.00 | 0.01 | 0.01 | 85 | 1018.8 |
| 20260906014517 | 65 | 261 | 0.0 | 4.3 | 0.00 | 0.01 | 0.01 | 87 | 1018.8 |
| 20260906013029 | 64 | 292 | 0.0 | 0.0 | 0.00 | 0.01 | 0.01 | 85 | 1018.8 |
| 20260906011512 | 64 | 263 | 0.0 | 5.2 | 0.00 | 0.01 | 0.01 | 84 | 1018.9 |
| 20260906010016 | 65 | 199 | 0.0 | 3.5 | 0.00 | 0.03 | 0.01 | 84 | 1018.8 |
| 20260906004513 | 65 | 283 | 0.0 | 5.2 | 0.00 | 0.03 | 0.01 | 82 | 1018.7 |
| 20260906003019 | 66 | 290 | 1.7 | 4.3 | 0.00 | 0.03 | 0.01 | 80 | 1018.7 |
| 20260906001512 | 66 | 265 | 1.7 | 5.2 | 0.00 | 0.03 | 0.01 | 82 | 1018.5 |
| 20260906000007 | 66 | 304 | 3.5 | 7.8 | 0.00 | 0.04 | 0.01 | 81 | 1018.6 |
| 20260905234504 | 67 | 298 | 0.0 | 4.3 | 0.00 | 0.04 | 0.01 | 79 | 1018.5 |
| 20260905233002 | 67 | 299 | 1.7 | 7.0 | 0.00 | 0.04 | 0.01 | 82 | 1018.4 |
| 20260905231600 | 65 | 283 | 0.0 | 5.2 | 0.00 | 0.04 | 0.01 | 83 | 1018.4 |
| 20260905230059 | 66 | 257 | 0.0 | 7.0 | 0.00 | 0.04 | 0.01 | 83 | 1018.6 |
| 20260905224601 | 65 | 309 | 2.6 | 6.1 | 0.00 | 0.04 | 0.01 | 83 | 1018.7 |
| 20260905223056 | 65 | 288 | 2.6 | 7.8 | 0.00 | 0.04 | 0.01 | 84 | 1018.8 |
| 20260905221554 | 64 | 249 | 0.9 | 5.2 | 0.00 | 0.04 | 0.01 | 87 | 1018.7 |
| 20260905220053 | 64 | 190 | 0.0 | 3.5 | 0.00 | 0.04 | 0.01 | 85 | 1018.8 |
| 20260905214553 | 65 | 286 | 0.0 | 4.3 | 0.00 | 0.04 | 0.01 | 83 | 1018.8 |
| 20260905213051 | 65 | 286 | 0.0 | 2.6 | 0.00 | 0.04 | 0.01 | 85 | 1018.8 |
| 20260905211552 | 64 | 285 | 0.9 | 5.2 | 0.00 | 0.04 | 0.01 | 85 | 1018.8 |
| 20260905210107 | 63 | 290 | 0.9 | 4.3 | 0.00 | 0.04 | 0.01 | 85 | 1018.8 |
| 20260905204552 | 63 | 198 | 0.9 | 3.5 | 0.00 | 0.04 | 0.01 | 88 | 1018.9 |
| 20260905203050 | 63 | 294 | 0.9 | 7.0 | 0.00 | 0.04 | 0.01 | 85 | 1018.9 |
| 20260905201549 | 66 | 329 | 1.7 | 7.8 | 0.00 | 0.04 | 0.01 | 83 | 1018.9 |
| 20260905200055 | 65 | 274 | 0.9 | 7.0 | 0.00 | 0.04 | 0.01 | 87 | 1018.8 |
| 20260905194548 | 65 | 316 | 2.6 | 6.1 | 0.00 | 0.04 | 0.01 | 86 | 1018.9 |
| 20260905193050 | 65 | 307 | 0.0 | 5.2 | 0.00 | 0.04 | 0.01 | 82 | 1019.1 |
| 20260905191548 | 65 | 283 | 0.0 | 2.6 | 0.00 | 0.04 | 0.01 | 82 | 1019.1 |
| 20260905190055 | 66 | 253 | 0.0 | 2.6 | 0.00 | 0.04 | 0.01 | 81 | 1019.0 |
| 20260905184546 | 65 | 170 | 0.0 | 0.0 | 0.00 | 0.04 | 0.01 | 82 | 1019.0 |
| 20260905183042 | 63 | 334 | 0.0 | 0.0 | 0.00 | 0.04 | 0.01 | 84 | 1019.0 |
| 20260905181543 | 63 | 334 | 0.0 | 0.0 | 0.00 | 0.04 | 0.01 | 84 | 1019.1 |
| 20260905180039 | 63 | 297 | 0.0 | 0.0 | 0.00 | 0.04 | 0.01 | 84 | 1019.1 |
| 20260905174541 | 64 | 290 | 0.0 | 0.0 | 0.00 | 0.04 | 0.01 | 86 | 1019.2 |
| 20260905173034 | 62 | 120 | 0.0 | 0.0 | 0.00 | 0.04 | 0.01 | 90 | 1019.3 |
| 20260905171542 | 61 | 31 | 0.9 | 2.6 | 0.00 | 0.04 | 0.01 | 96 | 1019.2 |
| 20260905170029 | 60 | 80 | 0.0 | 0.0 | 0.00 | 0.04 | 0.01 | 98 | 1019.0 |
| 20260905164524 | 58 | 80 | 0.0 | 0.0 | 0.00 | 0.04 | 0.01 | 100 | 1019.0 |
| 20260905163022 | 58 | 85 | 0.0 | 0.9 | 0.00 | 0.04 | 0.01 | 100 | 1019.0 |
| 20260905161518 | 56 | 60 | 0.0 | 0.9 | 0.01 | 0.04 | 0.01 | 100 | 1018.9 |
| 20260905160019 | 54 | 95 | 0.0 | 0.0 | 0.01 | 0.04 | 0.01 | 100 | 1018.9 |
| 20260905154512 | 53 | 95 | 0.0 | 0.0 | 0.01 | 0.04 | 0.01 | 100 | 1018.9 |
| 20260905153009 | 52 | 95 | 0.0 | 0.0 | 0.01 | 0.04 | 0.01 | 100 | 1019.0 |
| 20260905151616 | 51 | 95 | 0.0 | 0.0 | 0.00 | 0.03 | 0.00 | 100 | 1019.0 |
| 20260905150008 | 50 | 95 | 0.0 | 0.0 | 0.00 | 0.03 | 0.00 | 100 | 1019.0 |
| 20260905144516 | 49 | 95 | 0.0 | 0.0 | 0.00 | 0.03 | 0.00 | 100 | 1018.9 |
| 20260905143007 | 49 | 90 | 0.0 | 0.0 | 0.00 | 0.03 | 0.00 | 100 | 1018.9 |
| 20260905141505 | 49 | 90 | 0.0 | 0.0 | 0.00 | 0.03 | 0.00 | 100 | 1018.8 |
| 20260905140004 | 48 | 90 | 0.0 | 0.0 | 0.00 | 0.03 | 0.00 | 100 | 1018.8 |
| 20260905134502 | 48 | 90 | 0.0 | 0.0 | 0.00 | 0.03 | 0.00 | 100 | 1018.7 |
| 20260905133001 | 49 | 90 | 0.0 | 0.0 | 0.00 | 0.03 | 0.00 | 100 | 1018.5 |
| 20260905131617 | 49 | 90 | 0.0 | 0.0 | 0.00 | 0.03 | 0.00 | 100 | 1018.4 |
| 20260905130100 | 50 | 90 | 0.0 | 0.0 | 0.00 | 0.03 | 0.00 | 100 | 1018.3 |
| 20260905124600 | 50 | 90 | 0.0 | 0.0 | 0.00 | 0.03 | 0.00 | 100 | 1018.3 |
| 20260905123100 | 50 | 90 | 0.0 | 0.0 | 0.00 | 0.03 | 0.00 | 100 | 1018.3 |
| 20260905121558 | 50 | 90 | 0.0 | 1.7 | 0.00 | 0.03 | 0.00 | 100 | 1018.5 |
| 20260905120056 | 49 | 101 | 0.0 | 0.0 | 0.00 | 0.03 | 0.00 | 100 | 1018.3 |
| 20260905114556 | 49 | 101 | 0.0 | 0.0 | 0.00 | 0.03 | 0.00 | 100 | 1018.4 |
| 20260905113054 | 49 | 101 | 0.0 | 0.0 | 0.00 | 0.03 | 0.00 | 100 | 1018.3 |
| 20260905111656 | 49 | 101 | 0.0 | 0.0 | 0.00 | 0.03 | 0.00 | 100 | 1018.2 |
| 20260905110053 | 49 | 101 | 0.0 | 0.0 | 0.00 | 0.03 | 0.00 | 100 | 1018.4 |
| 20260905104556 | 49 | 101 | 0.0 | 0.0 | 0.00 | 0.03 | 0.00 | 100 | 1018.5 |
| 20260905103053 | 49 | 101 | 0.0 | 0.0 | 0.00 | 0.03 | 0.00 | 100 | 1018.3 |
| 20260905101550 | 48 | 101 | 0.0 | 0.0 | 0.00 | 0.03 | 0.00 | 100 | 1018.3 |
| 20260905100105 | 48 | 101 | 0.0 | 0.0 | 0.00 | 0.03 | 0.00 | 100 | 1018.4 |
| 20260905094549 | 48 | 101 | 0.0 | 0.0 | 0.00 | 0.03 | 0.00 | 100 | 1018.3 |
| 20260905093047 | 48 | 100 | 0.0 | 0.0 | 0.00 | 0.03 | 0.00 | 100 | 1018.5 |
| 20260905091546 | 48 | 100 | 0.0 | 0.0 | 0.00 | 0.03 | 0.00 | 100 | 1018.3 |
| 20260905090103 | 48 | 101 | 0.0 | 0.0 | 0.00 | 0.03 | 0.00 | 100 | 1018.3 |
| 20260905084543 | 48 | 101 | 0.0 | 0.0 | 0.00 | 0.03 | 0.00 | 100 | 1018.1 |
| 20260905083048 | 49 | 101 | 0.0 | 0.0 | 0.00 | 0.03 | 0.00 | 100 | 1018.1 |
| 20260905081547 | 49 | 101 | 0.0 | 0.0 | 0.00 | 0.03 | 0.00 | 100 | 1018.1 |
| 20260905080045 | 49 | 101 | 0.0 | 0.0 | 0.00 | 0.03 | 0.00 | 100 | 1017.9 |
| 20260905074535 | 50 | 101 | 0.0 | 0.0 | 0.00 | 0.03 | 0.00 | 100 | 1017.8 |